PACCTY Weather Reports


Display with metric or nautical units.
time (UTC)temp
F
wind
direction
speed
MPH
gust
MPH
rain 1hr
in
rain 24hr
in
rain mn
in
humidity
%
barometer
mb
20260506081519 55 0 0.0 0.0 0.00 0.00 0.00 88 1016.7
20260506073519 56 0 0.0 0.0 0.00 0.00 0.00 88 1016.3
20260506073019 55 0 0.0 0.0 0.00 0.00 0.00 88 1016.2
20260506072519 56 0 0.0 0.0 0.00 0.00 0.00 88 1016.2
20260506072019 56 0 0.0 0.0 0.00 0.00 0.00 88 1016.1
20260506071519 56 0 0.0 0.0 0.00 0.00 0.00 88 1016.0
20260506071019 56 0 0.0 0.0 0.00 0.00 0.00 88 1015.9
20260506070519 56 0 0.0 0.0 0.00 0.00 0.00 88 1016.0
20260506062021 56 0 0.0 0.0 0.00 0.00 0.00 87 1015.7
20260506061518 56 0 0.0 0.0 0.00 0.00 0.00 87 1015.8
20260506061020 56 0 0.0 0.0 0.00 0.00 0.00 87 1015.7
20260506060519 56 0 0.0 0.0 0.00 0.00 0.00 87 1015.6
20260506051019 56 0 0.0 0.0 0.00 0.00 0.00 87 1015.8
20260506050518 56 0 0.0 0.0 0.00 0.00 0.00 87 1015.8
20260506045019 56 0 0.0 0.0 0.00 0.00 0.00 86 1015.5
20260506044518 56 0 0.0 0.0 0.00 0.00 0.00 86 1015.5
20260506043518 56 0 0.0 0.0 0.00 0.00 0.00 86 1015.3
20260506043019 56 0 0.0 0.0 0.00 0.00 0.00 86 1015.3
20260506042020 56 0 0.0 0.0 0.00 0.00 0.00 86 1015.2
20260506041518 56 0 0.0 0.0 0.00 0.00 0.00 86 1015.2
20260506041205 56 0 0.0 0.0 0.00 0.00 0.00 86 1015.2
20260506041019 56 0 0.0 0.0 0.00 0.00 0.00 86 1015.2
20260506040518 56 0 0.0 0.0 0.00 0.00 0.00 86 1015.0
20260506035518 56 0 0.0 0.0 0.00 0.00 0.00 85 1015.0
20260506035019 56 0 0.0 0.0 0.00 0.00 0.00 85 1015.0
20260506034518 56 0 0.0 0.0 0.00 0.00 0.00 85 1014.9
20260506033614 56 0 0.0 0.0 0.00 0.00 0.00 85 1014.7
20260506033519 56 0 0.0 0.0 0.00 0.00 0.00 85 1014.7
20260506033018 57 0 0.0 0.0 0.00 0.00 0.00 85 1014.7
20260506031518 57 0 0.0 0.0 0.00 0.00 0.00 85 1014.5
20260506030518 57 0 0.0 0.0 0.00 0.00 0.00 84 1014.5
20260506030018 57 0 0.0 0.0 0.00 0.00 0.00 84 1014.4
20260506025518 58 0 0.0 0.0 0.00 0.00 0.00 84 1014.4
20260506025018 58 0 0.0 0.0 0.00 0.00 0.00 84 1014.3
20260506024518 58 0 0.0 0.0 0.00 0.00 0.00 83 1014.3
20260506023518 58 0 0.0 0.0 0.00 0.00 0.00 83 1014.4
20260506023018 58 0 0.0 0.0 0.00 0.00 0.00 83 1014.4
20260506022518 58 0 0.0 0.0 0.00 0.00 0.00 82 1014.4
20260506021519 58 0 0.0 3.0 0.00 0.00 0.00 82 1014.4
20260506021019 58 0 0.0 3.0 0.00 0.00 0.00 82 1014.3
20260506020018 58 0 0.0 4.0 0.00 0.00 0.00 82 1014.3
20260506015518 58 0 0.0 4.0 0.00 0.00 0.00 82 1014.3
20260506015018 59 224 2.0 4.0 0.00 0.00 0.00 81 1014.4
20260506014518 59 224 1.0 4.0 0.00 0.00 0.00 81 1014.3
20260506014018 59 173 0.0 2.0 0.00 0.00 0.00 81 1014.3
20260506013518 59 173 0.0 2.0 0.00 0.00 0.00 81 1014.3
20260506013018 59 0 0.0 2.0 0.00 0.00 0.00 81 1014.3
20260506012518 59 0 0.0 0.0 0.00 0.00 0.00 81 1014.3
20260506012018 59 0 0.0 0.0 0.00 0.00 0.00 81 1014.2
20260506011518 59 0 0.0 0.0 0.00 0.00 0.00 80 1014.2
20260506011018 59 256 0.0 4.0 0.00 0.00 0.00 81 1014.3
20260506010518 59 256 0.0 4.0 0.00 0.00 0.00 80 1014.2
20260506010018 59 253 0.0 4.0 0.00 0.00 0.00 80 1014.2
20260506005518 59 253 0.0 4.0 0.00 0.00 0.00 81 1014.2
20260506004517 59 0 0.0 0.0 0.00 0.00 0.00 81 1014.3
20260506004018 59 235 0.0 3.0 0.00 0.00 0.00 81 1014.3
20260506003517 59 219 0.0 3.0 0.00 0.00 0.00 80 1014.4
20260506003017 60 219 0.0 3.0 0.00 0.00 0.00 80 1014.4
20260506002517 60 120 0.0 3.0 0.00 0.00 0.00 81 1014.4
20260506001517 60 246 0.0 3.0 0.00 0.00 0.00 80 1014.3
20260506001017 60 246 2.0 3.0 0.00 0.00 0.00 80 1014.3
20260506000517 60 232 1.0 7.0 0.00 0.00 0.00 80 1014.3
20260505235550 60 214 1.0 5.0 0.00 0.00 0.00 80 1014.4
20260505235517 60 214 1.0 5.0 0.00 0.00 0.00 80 1014.4
20260505235018 60 214 2.0 5.0 0.00 0.00 0.00 80 1014.4
20260505234518 60 257 3.0 6.0 0.00 0.00 0.00 79 1014.5
20260505234017 60 257 1.0 6.0 0.00 0.00 0.00 79 1014.5
20260505233517 60 235 3.0 3.0 0.00 0.00 0.00 79 1014.5
20260505233018 60 235 1.0 3.0 0.00 0.00 0.00 80 1014.5
20260505232517 60 170 0.0 5.0 0.00 0.00 0.00 79 1014.5
20260505232017 60 239 1.0 5.0 0.00 0.00 0.00 79 1014.5
20260505231517 60 239 3.0 5.0 0.00 0.00 0.00 79 1014.6
20260505230517 60 198 3.0 6.0 0.00 0.00 0.00 79 1014.8
20260505230017 60 246 0.0 6.0 0.00 0.00 0.00 79 1014.8
20260505225018 60 215 1.0 5.0 0.00 0.00 0.00 80 1014.8
20260505224518 60 215 2.0 5.0 0.00 0.00 0.00 79 1014.9
20260505224020 60 239 0.0 5.0 0.00 0.00 0.00 79 1014.9
20260505223518 60 239 0.0 5.0 0.00 0.00 0.00 79 1015.0
20260505223018 60 208 0.0 5.0 0.00 0.00 0.00 78 1015.0
20260505222517 60 208 0.0 5.0 0.00 0.00 0.00 78 1015.0
20260505221517 60 217 2.0 4.0 0.00 0.00 0.00 79 1014.8
20260505220517 61 254 2.0 4.0 0.00 0.00 0.00 77 1014.8
20260505215019 61 259 2.0 5.0 0.00 0.00 0.00 78 1015.0
20260505211517 60 0 0.0 2.0 0.00 0.00 0.00 79 1015.2
20260505205018 59 0 0.0 0.0 0.00 0.00 0.00 81 1015.4
20260505204517 59 0 0.0 0.0 0.00 0.00 0.00 80 1015.5
20260505202517 59 0 0.0 0.0 0.00 0.00 0.00 81 1015.5
20260505201517 59 0 0.0 0.0 0.00 0.00 0.00 81 1015.5
20260505200017 59 0 0.0 0.0 0.00 0.00 0.00 82 1015.6
20260505195517 59 0 0.0 0.0 0.00 0.00 0.00 82 1015.6
20260505194517 58 0 0.0 0.0 0.00 0.00 0.00 83 1015.5
20260505192519 58 0 0.0 0.0 0.00 0.00 0.00 85 1015.6
20260505192018 58 0 0.0 0.0 0.00 0.00 0.00 85 1015.7
20260505191518 58 0 0.0 0.0 0.00 0.00 0.00 85 1015.7
20260505191018 58 0 0.0 0.0 0.00 0.00 0.00 84 1015.7
20260505190518 58 0 0.0 0.0 0.00 0.00 0.00 84 1015.8
20260505184517 58 0 0.0 0.0 0.00 0.00 0.00 84 1015.8
20260505183518 58 0 0.0 0.0 0.00 0.00 0.00 85 1015.7
20260505183018 58 0 0.0 0.0 0.00 0.00 0.00 85 1015.6
20260505181517 58 0 0.0 0.0 0.00 0.00 0.00 85 1015.4
20260505181018 58 0 0.0 0.0 0.00 0.00 0.00 84 1015.4
20260505180517 58 0 0.0 0.0 0.00 0.00 0.00 85 1015.4
20260505175517 58 0 0.0 0.0 0.00 0.00 0.00 85 1015.3
20260505175018 57 0 0.0 0.0 0.00 0.00 0.00 85 1015.3
20260505174517 58 0 0.0 0.0 0.00 0.00 0.00 85 1015.2
20260505174017 57 0 0.0 0.0 0.00 0.00 0.00 85 1015.2
20260505173517 58 0 0.0 0.0 0.00 0.00 0.00 85 1015.1
20260505172517 57 0 0.0 0.0 0.00 0.00 0.00 85 1014.9
20260505172017 57 0 0.0 0.0 0.00 0.00 0.00 85 1014.7
20260505171017 57 0 0.0 0.0 0.00 0.00 0.00 85 1014.6
20260505170517 57 0 0.0 0.0 0.00 0.00 0.00 86 1014.6
20260505170017 57 0 0.0 0.0 0.00 0.00 0.00 86 1014.5
20260505165517 57 0 0.0 0.0 0.00 0.00 0.00 86 1014.5
20260505165017 57 0 0.0 0.0 0.00 0.00 0.00 86 1014.4
20260505164518 57 0 0.0 0.0 0.00 0.00 0.00 87 1014.4
20260505164017 57 0 0.0 0.0 0.00 0.00 0.00 87 1014.4
20260505163518 57 0 0.0 0.0 0.00 0.00 0.00 87 1014.4
20260505163017 57 0 0.0 0.0 0.00 0.00 0.00 88 1014.4
20260505162017 56 0 0.0 0.0 0.00 0.00 0.00 88 1014.2
20260505161532 56 0 0.0 0.0 0.00 0.00 0.00 89 1014.2
20260505161518 56 0 0.0 0.0 0.00 0.00 0.00 89 1014.2
20260505161017 56 0 0.0 0.0 0.00 0.00 0.00 89 1014.2
20260505160517 56 0 0.0 0.0 0.00 0.00 0.00 89 1014.1
20260505152518 55 0 0.0 0.0 0.00 0.00 0.00 92 1014.1
20260505152017 55 0 0.0 0.0 0.00 0.00 0.00 93 1014.1
20260505151518 55 0 0.0 0.0 0.00 0.00 0.00 93 1014.1
20260505151017 55 0 0.0 0.0 0.00 0.00 0.00 93 1014.0
20260505150517 55 0 0.0 0.0 0.00 0.00 0.00 93 1014.0
20260505140518 54 0 0.0 0.0 0.00 0.00 0.00 94 1013.8
20260505125017 54 0 0.0 0.0 0.00 0.00 0.00 93 1013.2
20260505124017 54 0 0.0 0.0 0.00 0.00 0.00 93 1013.2
20260505123017 54 0 0.0 0.0 0.00 0.00 0.00 93 1013.1
20260505122517 55 0 0.0 0.0 0.00 0.00 0.00 93 1013.1
20260505122017 54 0 0.0 0.0 0.00 0.00 0.00 93 1013.1
20260505121517 54 0 0.0 0.0 0.00 0.00 0.00 93 1013.1
20260505121017 55 0 0.0 0.0 0.00 0.00 0.00 93 1013.1
20260505120517 55 0 0.0 0.0 0.00 0.00 0.00 93 1013.1
20260505120017 55 0 0.0 0.0 0.00 0.00 0.00 93 1013.1
20260505114516 55 0 0.0 0.0 0.00 0.00 0.00 92 1013.1
20260505114017 55 0 0.0 0.0 0.00 0.00 0.00 92 1013.1
20260505113517 55 0 0.0 0.0 0.00 0.00 0.00 93 1013.1
20260505112517 55 0 0.0 0.0 0.00 0.00 0.00 93 1013.0
20260505112016 55 0 0.0 0.0 0.00 0.00 0.00 93 1013.0
20260505111516 55 0 0.0 0.0 0.00 0.00 0.00 93 1013.0
20260505111016 55 0 0.0 0.0 0.00 0.00 0.00 93 1013.0
20260505110516 55 0 0.0 0.0 0.00 0.00 0.00 92 1013.0
20260505102016 55 0 0.0 0.0 0.00 0.00 0.00 92 1012.9
20260505101519 55 0 0.0 0.0 0.00 0.00 0.00 92 1012.9
20260505101016 55 0 0.0 0.0 0.00 0.00 0.00 92 1012.9
20260505100516 55 0 0.0 0.0 0.00 0.00 0.00 92 1012.8
20260505100017 55 0 0.0 0.0 0.00 0.00 0.00 92 1012.8
20260505095516 55 0 0.0 0.0 0.00 0.00 0.00 92 1012.8
20260505095017 55 0 0.0 0.0 0.00 0.00 0.00 92 1012.8
20260505094516 55 0 0.0 0.0 0.00 0.00 0.00 92 1012.9
20260505094016 55 0 0.0 0.0 0.00 0.00 0.00 92 1012.9
20260505093516 55 0 0.0 0.0 0.00 0.00 0.00 92 1012.9
20260505092516 55 0 0.0 0.0 0.00 0.00 0.00 91 1012.7
20260505092016 55 0 0.0 0.0 0.00 0.00 0.00 92 1012.7
20260505091516 55 0 0.0 0.0 0.00 0.00 0.00 92 1012.7
20260505091016 55 0 0.0 0.0 0.00 0.00 0.00 92 1012.7
20260505090017 55 0 0.0 0.0 0.00 0.00 0.00 92 1012.7
20260505085516 55 0 0.0 0.0 0.00 0.00 0.00 92 1012.6
20260505085016 55 0 0.0 0.0 0.00 0.00 0.00 92 1012.6
20260505084516 55 0 0.0 0.0 0.00 0.00 0.00 92 1012.7
20260505084016 55 0 0.0 0.0 0.00 0.00 0.00 92 1012.7
20260505083018 55 0 0.0 0.0 0.00 0.00 0.00 92 1012.6
20260505082517 55 0 0.0 0.0 0.00 0.00 0.00 92 1012.5